Change the Weather History Date:

Monday, November 26, 2012

  Actual Average Record
Temperature  
Mean Temperature 34 °F -  
Max Temperature 37 °F 37 °F 50 °F (2002)
Min Temperature 30 °F 31 °F 14 °F (2006)
Degree Days  
Heating Degree Days 32    
Moisture  
Dew Point 29 °F    
Average Humidity 82    
Maximum Humidity 93    
Minimum Humidity 75    
Precipitation  
Precipitation 0.00 in - - ()
Sea Level Pressure  
Sea Level Pressure 30.24 in    
Wind  
Wind Speed 8 mph (NE)    
Max Wind Speed 13 mph    
Max Gust Speed 22 mph    
Visibility 10 miles    
Events      
Averages and records for this station are not official NWS values.
T = Trace of Precipitation, MM = Missing Value Source: NWS Daily Summary

Daily Weather History Graph

Daily Weather History Graph

Search for Another Location

Airport or City:

Trip Planner

Search our weather history database for the weather conditions in past years. The results will help you decide how hot, cold, wet, or windy it might be!

Date:

Astronomy

Nov. 26, 2012 Rise Set
Actual Time 8:00 AM AKST 3:25 PM AKST
Civil Twilight 7:14 AM AKST 4:11 PM AKST
Nautical Twilight 6:25 AM AKST 5:00 PM AKST
Astronomical Twilight 5:39 AM AKST 5:46 PM AKST
Moon 2:32 PM AKST (11/26) 6:05 AM AKST (11/26)
Length of Visible Light 8h 57m
Length of Day
7h 24m
Waxing Gibbous, 97% of the Moon is Illuminated
Nov 26
Waxing Gibbous
Nov 28
Full
Dec 6
Last Quarter
Dec 12
New
Dec 19
First Quarter

Hourly Weather History & Observations

Time (AKST) Temp. Windchill Dew Point Humidity Pressure Visibility Wind Dir Wind Speed Gust Speed Precip Events Conditions
12:36 AM 37.4 °F 32.1 °F 33.8 °F 87% 30.24 in 10.0 mi East 6.9 mph - N/A   Overcast
12:56 AM 37.4 °F 32.1 °F 33.8 °F 87% 30.25 in 10.0 mi East 6.9 mph - N/A   Overcast
1:16 AM 37.4 °F 32.1 °F 35.6 °F 93% 30.25 in 10.0 mi East 6.9 mph - N/A   Overcast
1:36 AM 37.4 °F 32.8 °F 33.8 °F 87% 30.25 in 10.0 mi East 5.8 mph - N/A   Mostly Cloudy
1:56 AM 37.4 °F 33.8 °F 35.6 °F 93% 30.25 in 10.0 mi East 4.6 mph - N/A   Mostly Cloudy
2:16 AM 37.4 °F 32.8 °F 33.8 °F 87% 30.25 in 10.0 mi East 5.8 mph - N/A   Overcast
2:36 AM 37.4 °F 32.8 °F 33.8 °F 87% 30.25 in 10.0 mi East 5.8 mph - N/A   Overcast
2:56 AM 37.4 °F 32.8 °F 33.8 °F 87% 30.25 in 8.0 mi ENE 5.8 mph - N/A   Overcast
3:16 AM 37.4 °F 31.4 °F 33.8 °F 87% 30.25 in 7.0 mi NE 8.1 mph - N/A   Overcast
3:36 AM 37.4 °F 31.4 °F 33.8 °F 87% 30.25 in 10.0 mi ENE 8.1 mph - N/A   Overcast
3:56 AM 37.4 °F 30.8 °F 33.8 °F 87% 30.25 in 10.0 mi ENE 9.2 mph - N/A   Overcast
4:16 AM 37.4 °F 30.3 °F 33.8 °F 87% 30.25 in 10.0 mi ENE 10.4 mph - N/A   Overcast
4:36 AM 35.6 °F 28.6 °F 33.8 °F 93% 30.25 in 10.0 mi ENE 9.2 mph - N/A   Overcast
4:56 AM 35.6 °F 28.6 °F 33.8 °F 93% 30.24 in 10.0 mi ENE 9.2 mph - N/A   Overcast
5:16 AM 35.6 °F 28.6 °F 32.0 °F 87% 30.24 in 10.0 mi ENE 9.2 mph - N/A   Overcast
5:36 AM 35.6 °F 28.6 °F 32.0 °F 87% 30.24 in 10.0 mi ENE 9.2 mph - N/A   Overcast
5:56 AM 35.6 °F 28.6 °F 32.0 °F 87% 30.23 in 10.0 mi ENE 9.2 mph - N/A   Overcast
6:16 AM 35.6 °F 28.0 °F 30.2 °F 81% 30.24 in 10.0 mi NE 10.4 mph - N/A   Overcast
6:36 AM 35.6 °F 29.2 °F 30.2 °F 81% 30.24 in 10.0 mi NE 8.1 mph - N/A   Overcast
6:56 AM 35.6 °F 28.6 °F 32.0 °F 87% 30.25 in 10.0 mi ENE 9.2 mph - N/A   Overcast
7:16 AM 35.6 °F 28.0 °F 30.2 °F 81% 30.25 in 10.0 mi NE 10.4 mph - N/A   Overcast
7:36 AM 35.6 °F 27.1 °F 30.2 °F 81% 30.25 in 10.0 mi NE 12.7 mph 16.1 mph N/A   Overcast
7:56 AM 35.6 °F 27.5 °F 30.2 °F 81% 30.26 in 10.0 mi ENE 11.5 mph 17.3 mph N/A   Overcast
8:16 AM 35.6 °F 27.5 °F 30.2 °F 81% 30.27 in 10.0 mi ENE 11.5 mph 17.3 mph N/A   Overcast
8:36 AM 35.6 °F 28.0 °F 30.2 °F 81% 30.27 in 10.0 mi NE 10.4 mph 16.1 mph N/A   Overcast
8:56 AM 35.6 °F 28.6 °F 30.2 °F 81% 30.27 in 10.0 mi NE 9.2 mph - N/A   Overcast
9:16 AM 35.6 °F 28.0 °F 30.2 °F 81% 30.27 in 10.0 mi NE 10.4 mph 16.1 mph N/A   Overcast
9:36 AM 35.6 °F 28.0 °F 30.2 °F 81% 30.27 in 10.0 mi ENE 10.4 mph 17.3 mph N/A   Overcast
9:56 AM 35.6 °F 27.5 °F 30.2 °F 81% 30.27 in 10.0 mi ENE 11.5 mph 18.4 mph N/A   Mostly Cloudy
10:16 AM 35.6 °F 28.0 °F 30.2 °F 81% 30.27 in 10.0 mi NE 10.4 mph 17.3 mph N/A   Overcast
10:36 AM 35.6 °F 27.1 °F 30.2 °F 81% 30.28 in 10.0 mi NE 12.7 mph 19.6 mph N/A   Scattered Clouds
10:56 AM 35.6 °F 27.5 °F 30.2 °F 81% 30.28 in 10.0 mi NE 11.5 mph 17.3 mph N/A   Mostly Cloudy
11:16 AM 35.6 °F 27.1 °F 30.2 °F 81% 30.28 in 10.0 mi NE 12.7 mph - N/A   Overcast
11:36 AM 35.6 °F 29.2 °F 30.2 °F 81% 30.28 in 10.0 mi NE 8.1 mph - N/A   Overcast
11:56 AM 35.6 °F 27.5 °F 28.4 °F 75% 30.29 in 10.0 mi NE 11.5 mph 17.3 mph N/A   Overcast
12:16 PM 33.8 °F 26.4 °F 30.2 °F 87% 30.28 in 10.0 mi ENE 9.2 mph - N/A   Overcast
12:36 PM 33.8 °F 25.8 °F 30.2 °F 87% 30.28 in 10.0 mi NE 10.4 mph 16.1 mph N/A   Overcast
12:56 PM 35.6 °F 29.2 °F 30.2 °F 81% 30.27 in 10.0 mi NE 8.1 mph 16.1 mph N/A   Mostly Cloudy
1:16 PM 33.8 °F 25.3 °F 28.4 °F 81% 30.27 in 10.0 mi NE 11.5 mph - N/A   Mostly Cloudy
1:36 PM 33.8 °F 27.0 °F 28.4 °F 81% 30.27 in 10.0 mi ENE 8.1 mph 16.1 mph N/A   Scattered Clouds
1:56 PM 33.8 °F 26.4 °F 28.4 °F 81% 30.26 in 10.0 mi ENE 9.2 mph 18.4 mph N/A   Clear
2:16 PM 33.8 °F 24.8 °F 28.4 °F 81% 30.26 in 10.0 mi ENE 12.7 mph 21.9 mph N/A   Clear
2:36 PM 33.8 °F 25.8 °F 28.4 °F 81% 30.25 in 10.0 mi NE 10.4 mph 20.7 mph N/A   Clear
2:56 PM 33.8 °F 25.8 °F 28.4 °F 81% 30.26 in 10.0 mi NE 10.4 mph 16.1 mph N/A   Clear
3:16 PM 33.8 °F 27.0 °F 28.4 °F 81% 30.25 in 10.0 mi NE 8.1 mph - N/A   Clear
3:36 PM 33.8 °F 26.4 °F 26.6 °F 75% 30.25 in 10.0 mi NE 9.2 mph 18.4 mph N/A   Clear
3:56 PM 33.8 °F 27.7 °F 26.6 °F 75% 30.25 in 10.0 mi NE 6.9 mph - N/A   Clear
4:16 PM 33.8 °F 27.7 °F 26.6 °F 75% 30.25 in 10.0 mi NE 6.9 mph - N/A   Clear
4:36 PM 33.8 °F 27.7 °F 26.6 °F 75% 30.24 in 10.0 mi NE 6.9 mph - N/A   Clear
4:56 PM 32.0 °F 24.2 °F 26.6 °F 80% 30.23 in 10.0 mi NE 9.2 mph 17.3 mph N/A   Clear
5:16 PM 32.0 °F 24.8 °F 26.6 °F 80% 30.23 in 10.0 mi ENE 8.1 mph - N/A   Clear
5:36 PM 32.0 °F 26.4 °F 26.6 °F 80% 30.22 in 10.0 mi NNE 5.8 mph - N/A   Clear
5:56 PM 32.0 °F 27.5 °F 26.6 °F 80% 30.22 in 10.0 mi NE 4.6 mph - N/A   Clear
6:16 PM 32.0 °F 26.4 °F 26.6 °F 80% 30.22 in 10.0 mi NNE 5.8 mph - N/A   Clear
6:36 PM 32.0 °F 24.8 °F 26.6 °F 80% 30.21 in 10.0 mi NE 8.1 mph - N/A   Clear
6:56 PM 32.0 °F - 26.6 °F 80% 30.22 in 10.0 mi Calm Calm - N/A   Clear
7:16 PM 32.0 °F 28.7 °F 26.6 °F 80% 30.21 in 10.0 mi ENE 3.5 mph - N/A   Clear
7:36 PM 32.0 °F 26.4 °F 26.6 °F 80% 30.20 in 10.0 mi NE 5.8 mph - N/A   Clear
7:56 PM 32.0 °F - 26.6 °F 80% 30.21 in 10.0 mi Calm Calm - N/A   Clear
8:16 PM 32.0 °F 27.5 °F 26.6 °F 80% 30.20 in 10.0 mi NNE 4.6 mph - N/A   Clear
8:36 PM 32.0 °F 24.2 °F 26.6 °F 80% 30.20 in 10.0 mi NE 9.2 mph - N/A   Clear
8:56 PM 32.0 °F 25.6 °F 26.6 °F 80% 30.19 in 10.0 mi ENE 6.9 mph - N/A   Clear
9:16 PM 32.0 °F 26.4 °F 26.6 °F 80% 30.19 in 10.0 mi NNE 5.8 mph - N/A   Clear
9:36 PM 32.0 °F 24.8 °F 24.8 °F 75% 30.19 in 10.0 mi NE 8.1 mph - N/A   Clear
9:56 PM 32.0 °F 26.4 °F 24.8 °F 75% 30.19 in 10.0 mi ENE 5.8 mph - N/A   Clear
10:16 PM 32.0 °F 26.4 °F 24.8 °F 75% 30.19 in 10.0 mi ENE 5.8 mph - N/A   Clear
10:36 PM 30.2 °F 23.4 °F 24.8 °F 80% 30.19 in 10.0 mi NE 6.9 mph - N/A   Clear
10:56 PM 32.0 °F 25.6 °F 24.8 °F 75% 30.17 in 10.0 mi NE 6.9 mph - N/A   Clear
11:16 PM 30.2 °F 25.4 °F 24.8 °F 80% 30.17 in 10.0 mi NE 4.6 mph - N/A   Clear
11:36 PM 32.0 °F 24.2 °F 24.8 °F 75% 30.16 in 10.0 mi NE 9.2 mph - N/A   Clear
11:56 PM 32.0 °F 25.6 °F 24.8 °F 75% 30.16 in 10.0 mi ENE 6.9 mph - N/A   Clear